Location: Bühlhof
(48.7849°N, 8.6361°E)
Time: 00:40:02
(UTC+00:00)

Cosmos 2369 - Pass Details

Date: 19 January 2026
Orbit: 839 x 853 km, 71.0° (Epoch: 18 February)

Event Time Altitude Azimuth Distance (km) Brightness Sun altitude
Rises 18:17:52 0° 335° (NNW) 3,413 7.1 -21.8°
Reaches altitude 10° 18:20:31 10° 343° (NNW) 2,472 6.2 -22.2°
Enters shadow 18:24:54 35° 31° (NNE) 1,338 4.4 -23.0°
